Flag for Canada Weather past 2 weeks in Saguenay, Quebec, Canada

Now
39 °F

Chilly.


Feels Like: 37 °F
Forecast: N/A
Wind: 3 mph from Northeast

Location: Jonquiere Airport


UV Index: N/A

Visibility: N/A


Pressure: 30.69 "Hg

Humidity: 45%

Dew point: 20 °F

Location of SaguenayLocation

Historic Weather in Saguenay

°F

Saguenay temperature yesterday

Maximum temperature yesterday: 22 °F (at 6:00 PM)
Minimum temperature yesterday: 9 °F (at 8:00 AM)
Average temperature yesterday: 15 °F

Past Weeks' High & Low Weather Summary

 TemperatureHumidityPressure
High57 °F (Apr 14, 9:00 PM)100% (Apr 2, 10:00 PM)30.82 "Hg (Apr 2, 10:00 PM)
Low9 °F (Apr 16, 8:00 AM)39% (Apr 4, 4:00 PM)29.23 "Hg (Apr 8, 5:00 PM)
Average32 °F73%29.91 "Hg
* Reported Apr 2 6:00 PM — Apr 17 6:00 PM, Saguenay, Weather by CustomWeather, © 2014

Note: Actual official high and low records may vary slightly from our data, if they occured in-between our weather recording intervals... More about our weather records

Advertising

Historic Weather Conditions — Data for Previous 24 hours

 ConditionsComfort  
Time TempWeatherWind HumidityBarometerVisibility
6:00 PM
Apr 17
39 °FChilly.3 mph45%30.69 "HgN/A
5:00 PM40 °FChilly.5 mph43%30.71 "HgN/A
4:00 PM40 °FChilly.3 mph44%30.73 "HgN/A
3:00 PM38 °FChilly.3 mph44%30.75 "HgN/A
2:00 PM38 °FChilly.5 mph43%30.76 "HgN/A
1:00 PM37 °FChilly.6 mph54%30.78 "HgN/A
12:00 PM34 °FChilly.2 mph52%30.80 "HgN/A
11:00 AM31 °FChilly.3 mph60%30.82 "HgN/A
10:00 AM29 °FChilly.2 mph63%30.81 "HgN/A
9:00 AM26 °FChilly.2 mph70%30.80 "HgN/A
8:00 AM22 °FCold.3 mph81%30.77 "HgN/A
7:00 AM19 °FCold.6 mph87%N/AN/A
6:00 AM18 °FCold.3 mph86%30.71 "HgN/A
5:00 AM19 °FCold.5 mph81%N/AN/A
4:00 AM18 °FCold.3 mph84%30.66 "HgN/A
3:00 AM21 °FCold.6 mph77%N/AN/A
2:00 AM22 °FCold.12 mph74%30.61 "HgN/A
1:00 AM21 °FCold.14 mph76%30.60 "HgN/A
12:00 AM21 °FCold.14 mph76%30.59 "HgN/A
11:00 PM
Apr 16
20 °FCold.12 mph78%30.56 "HgN/A
10:00 PM20 °FCold.8 mph79%30.55 "HgN/A
9:00 PM20 °FCold.6 mph84%30.52 "HgN/A
8:00 PM21 °FCold.3 mph78%30.49 "HgN/A
6:00 PM22 °FCold.12 mph69%30.44 "HgN/A
Weather by CustomWeather, © 2014

See weather overview